Wind_Speed
115 114 114 113 113 114 114 114 114 115 116 117 118 120 120 121 121 120 119 119 118 117 116 116 115 114 113 113 112 111 110 109 108 107 107 106 105 104 102 101 100 99 99 98 98 97 97 96 95 95 95 94 94 94 94 94 94 94 93 93 92 92 91 90 89 88 88 87 87 87 87 87 87 87 87 87 87 87 87 87 87 87 87 87 88 88
115 115 114 114 114 114 114 114 114 115 116 117 118 119 120 120 121 120 120 119 118 118 117 116 115 114 114 113 112 111 110 109 108 108 107 106 105 104 103 102 101 100 99 98 98 98 97 97 96 96 96 95 95 95 95 94 94 94 94 94 93 93 92 91 90 89 89 88 88 88 88 88 88 88 88 88 88 88 87 87 87 87 87 87 88 88
115 115 115 115 114 114 115 115 115 115 115 116 117 118 119 120 120 120 120 119 119 118 117 116 116 115 114 113 112 111 110 109 108 107 107 106 105 104 103 102 101 100 99 98 98 98 98 97 97 97 96 96 96 95 95 95 95 95 95 94 94 93 93 92 91 91 90 89 89 89 89 89 89 89 89 89 89 88 88 87 87 87 87 87 88 88
115 116 116 115 115 114 115 115 115 115 115 116 117 118 119 119 120 120 120 119 119 118 117 116 116 115 114 113 112 111 110 109 108 107 106 105 104 104 103 102 101 101 100 98 98 98 98 98 98 97 97 97 96 96 96 96 95 95 95 95 95 94 94 93 92 92 91 90 90 89 89 89 89 89 89 89 89 89 88 87 87 87 87 87 88 88
115 115 115 115 115 114 114 114 114 115 115 116 116 117 118 119 119 120 119 119 118 118 117 117 116 115 114 113 112 111 110 108 107 107 106 105 104 103 102 102 101 101 100 98 98 97 97 98 98 97 97 97 97 96 96 96 96 96 96 95 95 95 94 94 93 92 92 91 90 90 90 90 90 89 89 90 89 89 89 88 87 87 87 87 88 88
114 114 114 114 114 114 114 114 114 114 114 115 116 116 117 118 119 119 119 119 118 118 117 117 116 115 114 113 112 111 109 108 107 106 105 104 103 102 102 102 101 101 100 99 98 97 97 97 97 97 97 97 97 97 97 96 96 96 96 96 96 95 95 94 94 93 92 92 91 91 90 90 90 90 90 90 90 89 89 88 87 87 87 88 88 88
112 112 112 112 112 112 112 112 113 113 113 114 115 115 116 117 118 118 118 118 118 117 117 116 115 115 114 112 111 110 109 108 106 105 104 103 102 102 101 101 101 101 100 98 98 97 97 97 97 97 97 97 97 97 97 97 97 96 96 96 96 96 95 95 94 93 93 92 92 91 91 90 90 90 90 90 90 90 89 88 88 87 88 88 88 88
110 110 110 110 110 110 110 111 111 111 112 113 113 114 115 116 116 117 117 117 117 117 116 116 115 114 113 112 110 109 108 107 106 105 103 102 102 101 101 101 101 100 99 98 97 97 96 96 96 97 97 97 97 97 97 97 97 97 96 96 96 96 95 95 94 94 93 93 92 91 91 91 90 90 90 91 90 90 89 88 88 88 88 88 88 88
107 107 107 107 107 107 108 108 108 109 109 110 111 112 113 114 115 116 116 116 116 116 115 115 114 113 112 110 109 108 107 106 105 104 103 102 101 101 101 100 100 100 99 98 97 96 96 96 96 96 96 97 97 97 97 97 97 97 96 96 96 96 95 95 94 94 93 93 92 92 91 91 91 91 91 91 91 90 89 89 88 88 88 88 88 88
103 103 103 103 103 103 104 105 105 105 106 107 108 109 110 112 113 114 115 115 115 114 114 113 113 112 111 109 108 106 105 104 104 103 102 102 101 101 100 100 100 99 98 97 97 96 96 95 96 96 96 96 97 97 97 97 97 97 96 96 96 96 95 95 94 94 93 93 92 92 91 91 91 91 91 91 91 90 89 89 88 88 88 88 88 88
98 98 99 99 99 99 100 101 101 102 102 103 104 106 107 108 110 111 112 113 113 112 111 111 110 110 109 108 106 105 104 103 103 102 102 101 101 101 100 100 99 98 98 97 96 95 95 95 95 95 96 96 96 97 97 97 97 96 96 96 96 95 95 95 94 94 93 93 92 92 92 91 91 91 91 91 90 90 89 89 88 88 88 88 88 88
94 94 94 94 95 95 95 96 97 97 98 99 101 102 103 104 106 107 109 109 110 110 109 108 108 107 107 106 105 103 102 102 101 101 101 101 100 100 100 99 98 97 97 96 95 95 95 95 95 95 95 96 96 96 96 97 97 96 96 96 95 95 95 94 94 94 93 93 92 92 91 91 91 91 91 91 90 90 89 89 89 88 88 88 88 88
90 90 90 90 90 91 91 92 93 93 94 95 97 98 100 100 101 103 104 105 106 106 106 106 105 104 104 103 102 101 101 100 100 100 100 100 100 99 99 98 97 96 96 95 94 94 94 94 94 95 95 95 96 96 96 96 96 96 96 95 95 95 95 94 94 93 93 93 92 92 91 91 91 91 91 90 90 90 89 89 89 88 88 88 88 88
86 86 86 86 86 87 87 88 89 90 91 92 93 94 95 96 97 98 100 101 102 102 102 102 102 101 101 100 100 99 99 99 98 98 98 98 98 98 97 97 96 95 95 94 94 94 93 94 94 94 95 95 95 95 96 96 96 95 95 95 95 95 94 94 93 93 93 92 92 92 91 91 91 91 90 90 90 90 89 89 89 88 88 88 88 87
82 82 82 83 83 84 84 85 85 86 87 88 89 90 91 92 93 94 96 97 98 98 98 98 98 98 98 98 97 97 97 97 96 96 97 97 97 96 96 95 95 94 94 93 93 93 93 93 94 94 94 94 95 95 95 95 95 95 95 95 94 94 94 93 93 92 92 92 92 91 91 91 90 90 90 90 90 90 89 89 89 88 88 88 87 87
79 79 80 80 80 81 81 81 82 83 84 84 85 86 87 88 89 90 91 93 93 94 94 94 95 95 95 95 95 94 94 94 94 94 95 95 95 94 94 94 94 93 93 92 92 92 92 92 93 93 94 94 94 95 95 95 95 95 94 94 94 93 93 93 92 92 92 91 91 91 90 90 90 90 90 90 90 89 89 89 88 88 88 87 87 87
77 77 77 77 77 78 78 79 79 80 81 81 82 83 83 84 85 86 87 88 89 90 90 90 91 91 92 92 92 91 91 91 91 92 92 93 93 92 92 92 92 92 92 92 91 91 91 92 92 93 93 94 94 94 94 94 94 94 94 93 93 93 93 92 92 91 91 91 91 90 90 90 90 90 90 90 89 89 89 89 88 88 87 87 87 86
74 74 75 75 75 75 76 76 76 77 78 79 79 80 80 81 82 82 83 84 85 86 86 86 87 87 88 89 89 88 88 88 89 89 90 91 91 91 90 90 91 91 91 91 90 90 90 91 91 92 92 93 93 93 93 94 93 93 93 93 92 92 92 91 91 91 91 90 90 90 90 90 90 90 89 89 89 89 89 88 88 87 87 87 86 86
72 72 72 72 72 73 73 73 74 75 75 76 76 77 77 78 78 79 80 81 81 82 82 82 83 84 85 86 86 85 85 85 86 87 88 89 89 89 88 88 89 89 89 89 89 89 89 90 90 91 91 92 92 93 93 93 93 92 92 92 92 91 91 91 90 90 90 90 90 89 89 89 89 89 89 89 89 89 88 88 87 87 86 86 86 86
69 69 70 70 70 70 71 71 72 72 73 73 73 74 74 75 76 76 77 77 78 78 78 79 80 81 81 82 82 82 82 82 83 85 86 87 87 87 86 86 87 87 88 88 88 88 88 89 89 90 90 91 92 92 92 92 92 91 91 91 91 91 90 90 90 89 89 89 89 89 89 89 89 89 89 89 89 88 88 87 87 86 86 86 85 85
67 67 67 67 67 68 68 69 70 70 70 70 71 71 72 72 73 73 74 74 75 75 75 76 77 77 78 78 79 79 79 80 81 83 84 84 85 84 84 84 85 86 86 87 87 87 87 87 88 88 89 90 90 90 90 90 90 91 90 90 90 90 90 89 89 89 89 89 89 89 89 89 89 89 89 89 88 88 87 87 86 86 85 85 85 85
65 66 66 65 65 66 66 67 67 68 68 68 69 69 70 70 70 71 71 71 72 72 72 73 74 74 75 75 76 76 77 78 79 80 81 82 82 82 82 82 83 84 85 85 86 86 86 86 87 87 88 89 89 89 89 89 89 89 89 89 89 89 89 88 88 88 88 88 88 88 88 88 88 89 88 88 88 87 87 86 86 85 85 84 84 84
64 64 64 64 64 64 64 64 65 65 66 66 66 67 67 68 68 68 69 69 69 69 70 70 71 71 72 73 74 74 75 76 77 78 79 80 80 80 80 81 81 82 83 84 84 85 85 85 86 86 87 87 88 88 88 88 88 88 88 88 88 88 88 88 88 88 88 88 88 88 88 88 88 88 88 87 87 87 86 86 85 85 84 84 83 83
62 62 63 63 62 62 62 62 63 63 64 64 64 65 65 66 66 66 66 66 67 67 67 68 68 69 70 71 72 72 73 74 75 76 76 78 78 79 78 79 80 81 82 83 83 83 84 84 84 85 85 86 86 87 87 87 87 87 87 87 87 87 87 87 87 87 87 87 87 87 88 87 88 87 87 87 86 86 85 85 84 84 83 83 83 82
59 60 61 61 61 61 61 61 61 61 62 62 62 63 63 64 64 64 64 64 64 65 65 66 66 67 68 69 69 70 71 72 73 74 75 76 76 77 77 78 78 80 81 81 82 82 82 83 83 84 84 85 85 85 86 86 86 86 86 86 86 86 86 86 86 86 86 87 87 87 87 87 87 87 86 86 86 85 85 84 84 83 82 82 82 81
57 58 59 59 60 60 60 59 59 59 60 60 60 61 61 62 62 62 62 63 63 63 63 64 64 65 66 67 68 69 69 70 71 72 73 74 75 75 76 76 77 78 79 80 80 80 81 81 82 82 83 83 84 84 85 85 85 85 85 85 85 85 85 85 85 86 86 86 86 86 86 86 86 86 86 85 85 85 84 83 83 82 81 81 80 80
55 56 56 57 58 58 58 58 58 58 58 58 59 59 59 60 60 60 61 61 61 61 61 62 62 63 64 65 66 67 67 68 69 70 71 72 73 74 75 75 76 77 78 78 79 79 79 80 80 81 82 82 83 83 83 84 84 84 84 84 84 84 84 84 85 85 85 85 85 85 85 85 85 85 85 84 84 83 83 82 81 80 80 79 79 79
54 54 54 55 56 56 57 57 57 57 57 57 57 57 57 58 58 59 59 59 59 59 59 60 61 61 62 63 64 65 65 66 67 68 69 70 71 73 74 74 74 75 76 77 77 77 78 78 79 80 80 81 81 82 82 82 82 82 83 83 83 83 83 84 84 84 84 84 84 85 84 84 84 84 83 83 83 82 81 80 80 79 79 78 78 78
52 52 53 53 54 54 55 55 56 56 56 56 56 56 56 56 56 57 57 57 57 57 58 58 59 60 60 61 62 62 63 65 66 67 68 69 70 71 72 73 73 74 74 75 75 76 76 77 78 78 79 80 80 80 81 81 81 81 81 82 82 82 82 83 83 83 83 84 83 84 83 83 83 82 82 81 81 80 80 79 78 78 77 76 76 76
51 51 51 52 52 52 53 54 54 55 55 55 55 55 54 55 55 55 56 56 55 56 56 57 58 58 59 59 60 61 62 63 65 65 66 67 69 70 70 71 72 72 73 73 74 74 75 76 76 77 78 78 79 79 79 79 80 80 80 80 81 81 82 82 82 82 83 83 82 82 82 82 81 80 80 80 79 79 78 77 77 76 76 75 75 74
49 49 50 50 50 51 51 52 53 53 54 54 54 54 54 54 54 54 54 54 54 54 55 56 56 57 57 58 59 60 61 62 63 64 65 66 67 68 68 69 70 71 71 72 72 73 74 74 75 75 76 77 77 77 78 78 78 79 79 79 80 80 81 81 81 81 81 81 81 81 80 80 79 79 78 78 77 77 77 76 75 75 74 73 73 73
48 48 48 49 49 49 50 50 51 52 52 52 53 53 53 53 53 53 53 53 53 53 54 54 55 56 56 57 58 59 60 61 62 63 63 64 65 66 67 68 69 69 69 70 71 72 72 73 74 74 75 75 76 76 76 77 77 77 78 78 79 79 80 80 80 80 80 79 79 78 78 78 77 77 77 76 76 76 75 74 74 73 72 72 71 71
47 47 47 47 48 48 48 49 49 50 51 51 51 52 52 52 52 52 53 53 53 53 53 53 54 55 56 56 57 58 59 60 61 62 62 63 64 65 65 66 67 68 68 69 70 70 71 72 73 73 73 74 74 74 75 75 76 76 77 77 78 78 78 78 78 78 78 77 77 76 76 76 75 75 75 75 74 74 73 73 72 71 71 70 70 70
46 46 46 46 46 47 47 47 48 48 49 49 50 51 51 51 52 52 52 53 53 53 53 53 53 54 54 55 56 57 59 59 60 60 61 61 62 63 64 65 66 66 67 68 69 69 70 71 71 72 72 72 72 73 73 74 74 75 75 76 76 76 77 76 76 76 75 75 75 74 74 74 74 73 73 73 72 72 72 71 70 70 69 69 69 70
45 45 45 45 45 45 46 46 46 47 48 48 49 49 50 50 51 52 52 52 53 53 53 53 53 53 53 54 55 56 57 58 59 59 60 60 61 62 63 63 64 65 66 67 68 68 69 70 70 70 71 71 71 71 72 72 73 73 74 74 74 75 74 74 74 74 73 73 73 72 72 72 72 71 71 71 71 70 70 69 69 68 68 68 68 69
45 45 44 44 44 44 44 45 45 45 46 47 47 48 49 49 50 51 52 52 52 53 53 53 52 52 52 53 54 55 56 57 57 58 58 59 60 61 62 63 63 64 65 66 67 67 68 68 69 69 69 69 70 70 70 71 71 72 72 72 72 72 72 72 72 71 71 71 71 70 70 70 70 69 69 69 69 69 68 68 68 67 67 67 67 68
44 44 43 43 43 43 43 43 44 44 45 45 46 47 48 49 49 50 51 51 52 52 53 53 52 52 52 52 53 53 54 55 56 56 57 58 59 60 61 62 62 63 64 65 65 66 66 67 67 67 68 68 69 69 69 69 69 70 70 70 70 70 70 70 69 69 69 69 68 68 68 68 68 68 68 67 67 67 67 67 66 66 66 66 66 67
44 43 43 43 42 42 42 42 43 43 43 44 45 46 47 48 49 49 50 50 51 51 52 52 52 52 52 52 52 52 53 54 54 55 56 56 57 58 59 60 61 61 62 63 64 64 65 65 65 66 66 67 67 67 68 68 68 68 68 68 68 68 68 68 67 67 67 67 67 67 66 66 66 66 66 66 66 66 65 65 65 65 65 65 65 65
43 43 42 42 42 42 42 42 42 42 43 43 44 45 46 47 48 48 49 49 50 50 51 52 52 52 52 52 52 52 52 52 53 54 54 55 56 57 58 59 59 60 61 61 62 62 63 63 64 64 64 65 65 66 66 66 66 66 66 66 66 66 66 66 65 65 65 65 65 65 65 65 65 65 64 64 64 64 64 64 64 64 64 64 64 63
43 42 42 41 41 41 41 41 42 42 42 43 43 44 45 46 46 47 48 48 49 50 50 51 52 52 52 52 52 52 52 52 52 52 53 54 54 55 56 57 57 58 59 60 60 61 61 61 62 62 63 63 64 64 64 65 65 65 65 64 65 64 64 64 64 64 63 63 63 64 63 63 63 63 63 63 63 63 63 63 63 62 62 62 62 62
43 43 42 41 40 40 40 40 41 41 41 42 42 43 44 45 45 46 47 47 48 49 49 50 51 51 52 52 53 53 52 52 52 52 52 52 53 54 54 55 56 56 57 58 58 59 59 60 60 61 61 62 62 62 63 63 63 63 63 63 63 63 63 62 62 62 62 62 62 62 62 62 62 62 62 61 61 61 61 61 61 61 61 60 60 60
42 42 42 42 41 40 40 40 40 40 41 41 41 42 43 43 44 45 46 46 47 48 48 49 50 51 52 52 53 53 53 53 52 52 52 52 52 52 53 54 54 55 56 56 57 57 58 58 59 59 60 60 60 61 61 62 62 62 62 62 62 62 61 61 61 61 61 61 61 61 61 61 60 60 60 60 60 59 59 59 59 59 59 59 59 59
42 42 42 42 41 41 40 40 40 40 40 40 40 41 41 42 43 44 44 45 46 46 47 48 48 49 51 52 53 53 53 53 53 52 52 52 52 52 52 53 53 54 54 55 55 56 56 57 57 58 58 58 59 59 60 60 60 61 61 61 61 61 61 60 60 60 60 60 59 59 59 59 59 59 58 58 58 58 58 58 58 58 58 58 58 58
41 41 42 42 42 41 41 41 40 40 40 40 40 40 40 41 41 42 43 44 45 45 46 46 47 48 49 51 52 53 53 53 53 52 52 52 51 51 52 52 52 52 53 53 54 55 55 55 56 57 57 57 57 58 59 59 60 60 60 59 59 59 59 59 59 59 58 58 58 58 58 58 57 57 57 56 56 56 56 56 56 56 56 56 56 57
40 41 41 42 42 42 42 41 41 41 40 40 40 39 39 39 40 41 42 43 43 44 44 45 46 47 48 49 50 51 52 52 52 52 52 52 51 51 51 51 51 51 52 52 53 53 54 54 55 55 55 56 56 57 58 58 59 59 59 58 58 58 58 58 57 57 57 57 57 57 56 56 55 55 55 55 55 55 55 55 55 55 55 55 55 56
40 40 41 42 42 42 43 42 42 42 41 41 40 39 39 39 39 39 40 41 42 43 43 44 45 46 47 48 49 49 50 51 51 52 51 51 51 51 50 50 50 50 50 51 51 51 52 53 53 53 54 54 55 56 57 58 58 58 58 57 56 56 56 56 56 56 56 56 56 55 55 54 54 54 54 54 54 54 54 54 54 54 54 54 54 55
39 40 41 41 42 43 43 43 43 43 43 42 41 40 39 39 38 39 39 40 41 42 42 43 44 45 46 46 47 48 49 50 50 50 50 50 50 50 50 50 49 49 49 49 50 50 50 51 52 52 53 53 54 55 56 57 57 57 56 56 55 55 55 55 55 55 55 55 55 54 53 53 53 52 52 52 52 52 52 53 53 53 53 53 54 54
39 39 40 41 42 43 43 44 44 44 44 43 43 42 41 40 39 39 39 39 39 40 41 42 43 44 45 46 46 47 48 48 49 49 49 49 49 49 49 49 49 48 48 48 48 49 49 50 50 51 51 52 53 54 55 55 56 56 55 54 54 53 54 54 54 54 54 54 53 53 52 52 51 51 51 51 51 51 51 51 52 52 52 53 53 53
38 39 40 40 41 42 43 43 44 44 44 44 44 43 42 41 41 40 39 39 39 40 40 41 42 43 44 45 45 46 46 47 48 48 48 48 48 48 48 48 48 48 48 48 48 48 48 49 49 50 50 51 52 53 54 54 54 54 53 53 53 53 53 53 53 53 53 53 52 52 51 51 50 49 49 49 49 49 49 50 50 51 51 52 53 53
38 38 39 39 40 40 41 42 42 43 44 44 44 44 43 42 42 41 41 40 40 40 40 41 41 42 43 44 45 45 46 46 46 47 47 47 47 47 47 47 47 47 47 47 47 47 47 48 48 49 50 51 52 52 53 53 52 52 52 52 52 52 52 53 53 53 52 52 51 51 50 49 49 48 48 47 47 48 48 49 49 50 51 52 52 52
38 38 38 38 38 39 39 40 41 41 42 42 42 43 42 42 42 41 41 41 40 40 40 40 41 42 43 43 44 44 45 45 45 46 46 46 46 46 46 46 46 46 46 47 46 47 47 47 48 48 49 50 51 51 51 51 51 51 51 51 51 52 52 52 52 52 52 51 50 49 49 48 47 47 46 46 46 46 47 48 49 50 51 51 51 51
Wind_Direction
272 272 271 271 270 269 269 268 268 267 267 267 267 268 268 268 268 269 269 269 269 269 269 268 268 268 268 268 268 268 268 267 267 267 267 267 267 267 267 267 266 266 266 266 266 267 267 266 266 266 266 266 266 266 266 267 267 267 267 267 267 267 267 267 267 267 267 267 267 267 267 267 267 267 267 266 266 266 266 266 266 266 266 266 265 265
273 272 272 271 270 270 269 268 268 267 267 267 267 267 267 268 268 268 268 268 268 268 268 268 268 268 268 268 268 268 268 267 267 267 267 267 267 267 267 266 266 266 266 266 266 266 266 266 266 266 266 266 266 266 266 266 267 267 267 267 267 267 267 267 267 267 267 267 267 267 267 267 267 267 267 267 267 266 266 266 266 266 266 266 266 266
273 273 272 271 271 270 269 269 268 268 267 267 267 267 267 267 267 268 268 268 268 268 268 268 268 268 268 268 268 267 267 267 267 267 267 267 267 266 266 266 266 266 266 266 266 266 266 266 266 266 266 266 266 266 266 266 266 267 267 267 267 267 267 267 267 267 267 267 267 267 267 267 267 267 267 267 267 267 266 266 266 266 266 266 266 266
273 273 272 272 271 270 270 269 269 268 268 267 267 267 267 267 267 267 267 267 267 267 268 268 268 267 267 267 267 267 267 267 267 267 267 267 266 266 266 266 266 266 265 265 265 265 265 265 265 265 265 265 265 265 266 266 266 266 266 267 267 267 267 267 267 267 267 267 267 267 267 267 267 267 267 267 267 267 267 267 267 267 267 267 266 266
273 272 272 271 271 270 270 269 269 268 268 267 267 267 267 266 267 267 267 267 267 267 267 267 267 267 267 267 267 267 267 267 266 266 266 266 266 266 266 266 266 266 265 265 265 265 265 265 265 265 265 265 265 265 265 265 266 266 266 266 266 267 267 267 267 267 267 267 267 267 267 267 267 267 267 267 267 267 267 267 267 267 267 267 267 267
273 272 272 271 271 270 269 269 268 268 267 267 267 266 266 266 266 266 266 266 266 266 266 266 266 266 266 266 266 266 266 266 266 266 266 266 266 266 266 265 265 265 265 265 264 264 264 264 264 264 264 265 265 265 265 265 265 265 266 266 266 266 266 267 267 267 267 267 267 267 267 267 267 267 267 267 267 267 267 267 267 267 267 267 267 267
273 272 271 271 270 270 269 268 268 267 267 267 266 266 266 266 266 266 266 266 266 266 266 266 266 266 266 266 266 266 266 266 266 266 266 266 265 265 265 265 265 265 265 264 264 264 264 264 264 264 264 264 264 264 264 264 265 265 265 265 266 266 266 266 267 267 267 267 267 267 267 267 267 267 267 267 267 267 267 267 267 267 267 267 267 267
272 272 271 270 270 269 269 268 267 267 266 266 266 265 265 265 265 265 265 265 265 265 265 265 265 265 265 265 265 265 265 265 265 265 265 265 265 265 265 265 264 264 264 264 264 263 263 263 263 263 263 263 264 264 264 264 264 264 265 265 265 265 266 266 266 267 267 267 267 267 267 267 267 267 267 267 267 267 267 267 267 267 267 267 267 267
272 272 271 270 270 269 268 268 267 266 266 265 265 265 265 264 264 264 264 264 264 264 264 264 264 264 264 264 264 264 265 265 265 265 265 265 264 264 264 264 264 264 264 263 263 263 263 263 263 263 263 263 263 263 263 263 264 264 264 264 265 265 265 266 266 266 266 267 267 267 267 267 267 267 267 267 267 267 267 267 267 267 267 267 267 267
272 272 271 270 269 269 268 267 267 266 266 265 265 264 264 264 264 264 264 264 264 264 264 264 264 264 264 264 264 264 264 264 264 264 264 264 264 264 263 263 263 263 263 263 263 263 262 262 262 262 262 262 262 263 263 263 263 263 264 264 264 265 265 265 266 266 266 266 266 266 266 266 266 266 266 267 267 267 267 267 267 267 267 267 267 267
273 272 271 270 269 269 268 267 267 266 265 265 264 264 263 263 263 263 263 263 263 263 263 263 263 263 263 264 264 263 263 264 263 263 263 263 263 263 263 263 262 262 262 262 262 262 262 262 262 262 261 262 262 262 262 262 263 263 263 264 264 264 264 265 265 265 265 266 266 266 266 266 266 266 266 266 266 267 267 267 267 267 267 267 267 267
273 272 271 270 270 269 268 267 267 266 265 264 264 263 263 262 262 262 262 262 263 263 263 263 263 263 263 263 263 263 263 263 263 263 263 262 262 262 262 262 262 262 262 262 262 262 262 261 261 261 261 261 261 261 262 262 262 262 263 263 263 264 264 264 264 265 265 265 265 265 266 266 266 266 266 266 266 266 266 266 266 266 266 267 267 267
273 272 271 270 270 269 268 267 266 266 265 264 263 263 263 262 262 262 262 262 262 262 262 262 262 262 262 262 262 262 262 262 262 262 262 262 261 261 261 261 261 261 261 261 261 261 261 261 261 261 260 261 261 261 261 261 262 262 262 262 263 263 263 264 264 264 264 265 265 265 265 265 265 265 266 266 266 266 266 266 266 266 266 266 266 267
273 272 271 271 270 269 268 267 267 266 265 264 263 263 262 262 262 262 261 261 261 261 262 262 262 262 262 262 262 262 261 261 261 261 261 261 261 261 261 261 261 261 261 261 261 260 260 260 260 260 260 260 260 260 261 261 261 261 262 262 262 262 263 263 263 264 264 264 264 265 265 265 265 265 265 266 266 266 266 266 266 266 266 266 266 267
273 272 271 271 270 269 268 267 267 266 265 264 264 263 262 262 262 261 261 261 261 261 261 261 261 261 261 261 261 261 261 260 260 260 260 260 260 260 260 260 260 260 260 260 260 260 260 260 260 260 260 260 260 260 260 260 261 261 261 261 262 262 262 263 263 263 263 264 264 264 264 265 265 265 265 265 265 266 266 266 266 266 266 266 266 267
273 272 271 271 270 269 268 267 267 266 265 265 264 263 263 262 262 261 261 261 261 261 261 261 261 261 261 261 260 260 260 260 260 259 259 259 259 259 259 259 259 259 259 259 259 259 259 259 259 259 259 259 259 259 260 260 260 260 261 261 261 262 262 262 263 263 263 263 264 264 264 264 264 265 265 265 265 265 266 266 266 266 266 266 267 267
273 272 271 271 270 269 268 267 267 266 265 265 264 263 263 262 262 262 261 261 261 261 261 261 260 260 260 260 260 260 259 259 259 259 259 259 259 259 259 259 259 259 258 258 258 258 258 258 258 258 259 259 259 259 259 260 260 260 261 261 261 261 262 262 262 263 263 263 263 264 264 264 264 264 265 265 265 265 265 266 266 266 266 266 267 267
273 272 272 271 270 269 268 268 267 266 265 265 264 264 263 263 262 262 261 261 261 261 260 260 260 260 260 260 259 259 259 259 259 258 258 258 258 258 258 258 258 258 258 258 257 257 257 257 257 258 258 258 258 259 259 259 260 260 260 261 261 261 262 262 262 262 263 263 263 263 264 264 264 264 264 265 265 265 265 265 266 266 266 266 266 267
273 273 272 271 270 269 269 268 267 266 266 265 264 264 263 263 262 262 261 261 261 261 260 260 260 259 259 259 259 259 259 258 258 258 257 257 257 257 257 257 257 257 257 257 257 257 256 256 257 257 257 258 258 258 259 259 259 260 260 260 261 261 261 262 262 262 262 263 263 263 263 264 264 264 264 264 265 265 265 265 266 266 266 266 266 267
273 272 272 271 270 270 269 268 267 266 266 265 265 264 263 263 262 262 261 261 261 260 260 260 259 259 259 259 259 258 258 258 257 257 257 257 256 256 256 256 256 256 256 256 256 256 256 256 256 256 257 257 257 258 258 259 259 259 260 260 260 261 261 261 262 262 262 262 263 263 263 263 264 264 264 264 265 265 265 265 266 266 266 266 266 266
273 272 272 271 270 269 269 268 267 266 266 265 265 264 263 263 262 262 261 261 261 260 260 260 259 259 259 258 258 258 257 257 256 256 256 256 256 256 256 256 256 256 256 256 256 256 256 256 256 256 256 257 257 257 258 258 259 259 259 260 260 260 261 261 261 262 262 262 262 263 263 263 263 264 264 264 264 265 265 265 265 266 266 266 266 266
274 273 272 271 270 269 268 268 267 266 266 265 264 264 263 262 262 262 261 261 260 260 260 259 259 259 258 258 258 257 257 256 256 256 256 256 256 255 255 255 255 255 255 255 255 255 255 255 255 255 256 256 257 257 257 258 258 259 259 259 260 260 260 261 261 261 262 262 262 262 263 263 263 263 264 264 264 265 265 265 265 265 265 266 266 266
274 273 272 271 270 269 268 267 267 266 266 265 264 264 263 262 262 261 261 261 260 260 259 259 258 258 258 257 257 256 256 256 255 255 255 255 255 255 255 255 254 255 255 255 255 255 255 255 255 255 256 256 256 257 257 257 258 258 259 259 259 260 260 260 261 261 261 262 262 262 263 263 263 263 264 264 264 265 265 265 265 265 265 265 265 266
274 273 273 271 270 269 268 268 267 266 266 265 265 264 263 263 262 262 261 261 260 259 259 258 258 257 257 257 256 256 255 255 255 255 255 255 255 255 254 254 254 254 254 254 254 255 255 255 255 255 255 256 256 257 257 257 258 258 258 259 259 260 260 260 261 261 261 262 262 262 262 263 263 263 264 264 264 264 264 265 265 265 265 265 265 265
273 273 272 272 271 270 269 268 267 266 266 265 265 264 264 263 263 262 261 261 260 259 259 258 257 257 257 256 256 256 255 255 255 254 254 255 254 254 254 254 254 254 254 254 254 254 255 255 255 255 255 256 256 256 257 257 258 258 258 259 259 259 260 260 260 261 261 261 262 262 262 263 263 263 263 264 264 264 264 264 264 265 265 265 265 265
273 272 272 272 271 271 270 269 268 267 266 265 265 264 264 264 263 263 262 261 260 259 259 258 258 257 257 256 256 256 255 255 255 254 254 254 254 254 254 254 254 253 254 254 254 254 254 255 255 255 255 256 256 256 257 257 258 258 258 259 259 259 260 260 260 260 261 261 261 262 262 262 263 263 263 263 263 264 264 264 264 264 264 265 265 265
273 272 272 272 271 271 270 270 268 267 267 266 265 264 264 264 263 263 262 261 261 260 259 259 258 258 257 256 256 256 256 255 255 255 255 254 254 254 254 254 254 254 254 254 254 254 254 255 255 255 255 256 256 256 257 257 257 258 258 259 259 259 260 260 260 260 261 261 261 261 262 262 262 262 263 263 263 263 264 264 264 264 264 264 264 265
273 272 272 271 271 271 271 270 269 268 267 266 265 265 264 264 263 263 262 262 261 261 260 259 259 258 257 257 257 256 256 256 255 255 255 254 254 254 254 254 254 254 254 254 255 255 255 255 255 255 256 256 256 256 257 257 258 258 258 259 259 259 260 260 260 260 260 261 261 261 261 261 262 262 262 263 263 263 263 264 264 264 264 264 264 264
273 273 272 271 271 271 271 270 270 269 268 267 267 266 265 264 263 263 263 262 262 261 260 260 259 258 258 257 257 257 256 256 255 255 255 254 254 255 255 255 255 255 255 255 255 255 255 255 255 256 256 256 256 257 257 257 258 258 258 259 259 259 259 260 260 260 260 260 260 261 261 261 261 262 262 263 263 263 264 264 264 264 264 264 264 263
274 273 272 272 271 271 271 270 270 270 269 269 268 267 266 265 264 263 263 262 262 261 261 260 259 259 258 258 257 257 256 256 255 255 255 254 255 255 255 255 255 255 255 255 255 256 256 256 256 256 256 256 257 257 257 257 258 258 258 258 258 259 259 259 259 259 259 260 260 260 261 261 262 262 262 263 263 263 263 263 263 263 263 263 263 263
274 273 273 272 271 271 271 270 270 270 270 269 269 268 267 266 265 264 263 263 262 261 261 260 259 259 258 258 257 257 256 256 255 255 255 255 255 255 255 255 256 256 256 256 256 256 256 256 256 256 256 256 257 257 257 257 257 258 258 258 258 258 258 258 259 259 259 260 260 260 261 261 262 262 262 263 263 263 263 263 263 263 263 262 262 262
274 273 273 272 272 271 271 270 270 270 270 270 269 269 268 267 266 265 264 263 262 261 260 260 259 259 258 258 257 257 256 256 256 255 255 255 255 255 255 255 256 256 256 256 256 256 256 256 256 256 256 256 256 256 257 257 257 257 257 257 258 258 258 258 258 259 259 260 260 261 261 261 262 262 262 263 263 263 263 262 262 262 262 262 261 261
274 273 272 272 272 271 271 271 270 270 270 270 270 269 269 268 268 267 266 264 263 261 260 259 259 258 258 258 257 257 257 256 256 256 255 255 255 255 255 256 256 256 256 256 256 256 256 256 256 256 256 256 256 256 256 257 257 257 257 257 257 258 258 258 258 259 259 260 260 261 261 262 262 262 262 262 262 262 262 262 262 261 261 261 261 260
274 274 273 272 272 271 271 271 271 270 270 270 270 270 269 269 268 267 267 266 264 263 261 260 259 258 258 257 257 257 257 257 257 256 256 256 256 256 256 256 256 256 256 256 256 256 256 256 256 256 256 256 256 256 256 256 257 257 257 257 257 258 258 258 259 259 260 260 260 261 261 261 261 261 261 261 261 261 261 261 261 261 260 260 260 260
275 274 273 273 272 272 271 271 271 271 270 270 270 270 269 269 269 268 267 267 266 265 263 262 260 259 258 258 257 257 257 257 257 257 257 257 257 256 256 256 256 256 256 256 256 256 256 256 256 256 257 257 256 256 256 256 257 257 257 257 258 258 258 259 259 259 260 260 260 260 261 261 261 261 261 261 261 261 261 260 260 260 260 260 259 259
276 275 274 274 273 272 271 271 271 271 270 270 270 270 269 269 269 268 268 268 267 267 266 264 263 261 260 259 258 258 258 258 258 257 257 257 257 257 257 256 256 256 256 256 256 256 256 256 257 257 257 257 257 257 257 257 257 257 257 257 258 258 258 259 259 259 259 260 260 260 260 260 260 260 260 260 260 260 260 260 260 260 259 259 259 259
277 276 275 274 274 273 272 271 271 271 270 270 270 269 269 269 269 269 268 268 268 268 268 267 266 264 262 261 260 259 259 258 258 258 257 257 257 257 257 257 256 256 256 256 256 257 257 257 257 257 257 257 258 258 257 257 257 257 257 258 258 258 259 259 259 259 259 259 259 259 259 259 259 259 259 259 259 259 259 259 259 259 259 259 259 259
277 277 276 275 275 274 273 272 271 270 270 270 269 269 269 269 269 269 269 269 269 269 269 268 268 267 265 264 262 261 260 259 259 258 258 257 257 257 257 257 257 257 257 257 257 257 257 257 258 258 258 258 258 258 258 258 258 258 258 258 258 259 259 259 259 259 259 259 259 259 259 259 259 259 259 259 259 259 259 259 259 259 259 259 259 259
279 278 277 276 276 275 274 273 272 271 270 270 269 269 269 269 269 269 269 269 269 269 269 269 269 268 268 266 265 263 262 261 260 259 259 258 258 258 257 257 257 257 257 258 258 258 258 258 258 258 258 258 258 259 259 259 258 258 259 259 259 259 259 259 259 259 259 259 259 259 259 259 259 259 258 259 259 259 259 259 259 259 259 259 259 259
280 279 278 277 276 275 275 274 273 272 271 270 269 269 269 268 268 268 268 268 269 269 269 269 269 269 269 268 267 265 264 263 262 261 260 259 259 258 258 258 258 258 258 258 258 258 258 258 258 258 258 259 259 259 259 259 259 259 259 259 259 259 259 259 259 259 259 259 258 258 258 258 258 258 258 258 258 259 259 259 259 259 259 259 259 259
282 281 280 279 277 276 275 274 273 273 272 271 270 269 269 268 268 268 268 268 268 268 268 269 269 269 269 269 268 267 266 265 263 262 261 260 260 259 259 258 258 258 258 258 258 258 258 258 259 259 258 258 259 259 259 259 259 259 259 259 259 259 259 259 259 259 258 258 258 258 258 258 258 258 258 258 258 259 259 259 259 259 259 259 259 259
283 283 282 281 280 278 277 275 274 273 272 271 271 270 269 269 268 268 268 268 268 268 268 268 268 268 269 269 269 268 268 266 265 264 263 262 261 260 260 259 259 259 259 259 259 259 259 259 259 259 259 258 259 259 259 259 259 259 259 259 259 259 259 259 259 258 258 258 258 258 258 258 258 258 258 258 258 259 259 259 259 259 259 259 259 259
283 283 283 282 282 280 279 277 276 275 273 272 271 270 270 269 269 269 268 268 268 267 267 267 267 267 268 268 268 268 268 268 267 266 265 264 262 262 261 260 260 259 259 259 259 259 259 259 259 259 259 259 259 259 259 259 259 259 259 259 259 259 259 259 259 258 258 258 258 258 258 258 258 258 258 258 258 259 259 259 259 259 259 259 259 259
283 283 283 283 283 282 281 280 278 277 275 274 272 271 270 270 270 269 269 269 269 268 268 267 267 267 267 267 267 268 268 268 268 267 267 265 264 263 262 262 261 260 260 260 260 259 259 259 259 259 259 259 259 259 259 259 259 259 259 258 258 258 259 259 259 259 258 258 258 258 258 257 258 258 258 258 258 258 259 259 259 259 259 259 259 259
284 284 284 284 284 283 283 282 281 279 278 276 275 273 272 271 271 270 270 270 270 269 269 268 268 267 267 267 267 267 268 268 268 268 267 267 266 265 264 263 262 262 261 260 260 260 260 260 260 259 260 260 260 260 259 259 259 259 259 258 258 258 258 259 258 258 258 258 258 257 258 258 258 258 258 258 258 258 258 258 259 259 259 259 259 259
284 284 285 285 284 284 284 283 282 281 280 279 278 276 275 274 272 271 271 271 271 271 270 270 269 268 267 267 267 267 267 268 268 268 268 267 267 266 265 264 264 263 262 261 261 261 260 260 260 260 260 259 259 259 259 259 259 259 259 259 258 258 258 258 258 258 258 258 258 257 257 258 258 258 258 258 258 258 259 259 259 259 259 259 259 259
284 284 284 284 284 284 284 284 284 284 283 282 282 280 279 277 275 274 273 272 272 271 271 270 270 269 268 268 267 267 267 267 267 267 267 267 267 266 266 265 264 264 263 262 262 261 261 260 260 260 259 259 259 259 259 259 259 259 259 259 259 258 258 258 258 258 258 258 258 258 258 258 258 258 258 258 258 259 259 259 259 259 259 259 259 259
284 283 283 283 283 284 284 285 285 285 285 285 284 283 282 281 279 277 275 274 272 272 271 271 270 269 269 268 268 267 267 267 267 267 267 267 267 266 266 265 265 264 264 263 262 262 261 260 260 259 259 259 258 258 258 258 259 259 259 259 259 259 258 258 258 258 258 258 258 258 258 258 258 258 258 258 258 259 259 259 259 259 260 260 260 260
283 283 282 282 283 283 284 284 285 285 285 285 285 285 284 283 282 280 278 276 275 273 272 271 270 270 269 268 268 267 267 267 267 266 266 266 266 266 265 265 265 264 264 263 262 261 261 260 260 259 259 258 258 258 258 258 258 259 259 259 259 259 259 258 258 258 258 258 258 258 258 258 258 258 258 258 259 259 259 260 260 260 260 260 260 260
284 283 283 283 283 283 283 283 283 283 284 284 284 284 284 284 283 282 281 279 277 275 273 272 271 270 269 268 268 267 267 267 266 266 266 266 265 265 265 264 264 264 263 262 262 261 261 260 259 259 258 258 258 258 258 258 258 259 259 259 259 259 259 259 258 258 258 258 258 258 259 259 259 258 259 259 259 259 260 260 260 260 260 260 260 260
285 285 284 283 283 283 282 282 282 282 282 282 282 283 283 283 282 282 281 280 279 277 275 274 272 271 270 269 268 268 267 267 266 266 266 265 265 265 264 263 263 262 262 261 261 261 260 260 259 259 258 258 258 258 258 259 259 259 259 259 259 259 259 259 259 258 259 259 259 259 259 259 259 259 259 259 259 260 260 260 260 260 260 260 260 260
Height
10325 10325 10325 10328 10329 10329 10327 10327 10327 10327 10324 10320 10317 10315 10312 10310 10310 10311 10312 10314 10315 10316 10317 10319 10320 10322 10323 10324 10325 10327 10329 10330 10332 10333 10334 10335 10337 10339 10342 10344 10345 10347 10348 10349 10350 10352 10352 10354 10354 10355 10355 10356 10356 10356 10357 10357 10357 10357 10357 10358 10359 10359 10360 10362 10364 10365 10365 10366 10366 10366 10367 10367 10367 10367 10367 10367 10368 10369 10369 10370 10371 10372 10372 10372 10372 10373
10313 10312 10312 10314 10316 10316 10315 10314 10314 10315 10314 10310 10307 10305 10303 10300 10299 10300 10301 10302 10304 10305 10306 10307 10309 10310 10312 10314 10315 10316 10318 10320 10321 10322 10324 10325 10327 10329 10331 10334 10335 10337 10339 10340 10341 10342 10343 10344 10345 10345 10346 10347 10347 10347 10347 10348 10348 10349 10349 10349 10349 10350 10351 10352 10354 10355 10357 10357 10357 10358 10359 10359 10359 10359 10359 10359 10360 10360 10361 10362 10362 10363 10364 10364 10364 10364
10300 10299 10299 10300 10301 10302 10302 10300 10301 10302 10302 10300 10297 10294 10293 10291 10289 10289 10289 10290 10292 10294 10295 10297 10298 10299 10301 10302 10304 10306 10308 10309 10311 10312 10314 10315 10317 10319 10321 10323 10325 10327 10329 10330 10332 10332 10333 10334 10335 10335 10336 10337 10337 10338 10339 10339 10339 10339 10340 10340 10340 10341 10342 10344 10345 10346 10347 10348 10349 10349 10350 10350 10350 10350 10350 10350 10351 10352 10352 10354 10354 10355 10355 10355 10356 10356
10288 10287 10286 10285 10287 10289 10290 10289 10288 10289 10290 10288 10286 10284 10282 10280 10279 10278 10278 10279 10281 10282 10284 10285 10287 10289 10290 10291 10293 10295 10297 10299 10300 10302 10304 10305 10307 10309 10311 10313 10315 10317 10319 10320 10322 10323 10324 10324 10325 10326 10327 10327 10328 10329 10329 10330 10330 10330 10331 10331 10332 10332 10334 10334 10335 10337 10338 10339 10340 10340 10341 10342 10342 10342 10342 10342 10342 10343 10344 10345 10345 10346 10347 10347 10347 10348
10275 10274 10273 10272 10274 10275 10275 10275 10276 10277 10277 10275 10274 10273 10271 10269 10268 10267 10267 10269 10270 10271 10272 10274 10275 10277 10279 10280 10282 10284 10287 10289 10290 10292 10294 10295 10297 10299 10301 10303 10305 10307 10309 10310 10312 10313 10314 10314 10315 10316 10317 10318 10319 10319 10320 10320 10321 10322 10322 10322 10323 10324 10324 10325 10326 10327 10329 10330 10331 10332 10332 10333 10333 10333 10334 10334 10334 10334 10335 10336 10337 10338 10339 10339 10339 10339
10261 10261 10260 10260 10260 10261 10262 10262 10263 10264 10264 10263 10262 10261 10259 10258 10257 10256 10256 10257 10258 10259 10260 10262 10264 10265 10268 10270 10272 10274 10275 10277 10280 10282 10284 10285 10287 10289 10291 10293 10295 10297 10299 10300 10302 10303 10304 10305 10305 10307 10307 10309 10309 10310 10310 10311 10312 10312 10313 10314 10314 10315 10315 10316 10317 10318 10320 10321 10322 10323 10324 10324 10324 10325 10325 10325 10325 10325 10327 10327 10329 10329 10330 10330 10330 10331
10247 10247 10247 10247 10247 10248 10249 10249 10250 10250 10250 10250 10250 10249 10248 10247 10245 10245 10245 10245 10246 10247 10249 10250 10252 10254 10256 10259 10260 10263 10265 10267 10270 10272 10274 10276 10278 10280 10282 10283 10285 10286 10288 10290 10292 10293 10294 10295 10296 10297 10298 10299 10300 10300 10301 10302 10303 10304 10304 10305 10305 10305 10307 10307 10308 10309 10310 10312 10313 10314 10315 10315 10316 10316 10316 10317 10317 10317 10318 10319 10320 10321 10321 10322 10322 10322
10234 10234 10234 10234 10234 10235 10235 10236 10237 10237 10238 10238 10237 10237 10236 10235 10234 10234 10233 10233 10234 10235 10237 10239 10240 10242 10245 10247 10250 10253 10255 10257 10260 10262 10265 10267 10269 10270 10272 10273 10275 10276 10278 10280 10282 10283 10284 10285 10287 10288 10289 10290 10290 10291 10292 10292 10293 10294 10295 10295 10296 10297 10298 10299 10300 10300 10302 10303 10304 10305 10306 10307 10307 10308 10308 10308 10309 10309 10310 10311 10312 10312 10313 10313 10314 10314
10220 10220 10220 10221 10222 10222 10222 10222 10224 10224 10225 10225 10225 10225 10224 10224 10223 10222 10221 10221 10222 10223 10225 10227 10229 10231 10234 10237 10240 10243 10245 10248 10250 10253 10255 10257 10259 10260 10262 10263 10265 10266 10268 10270 10272 10274 10275 10276 10277 10279 10279 10280 10281 10282 10282 10283 10284 10285 10285 10287 10287 10288 10289 10290 10291 10292 10293 10294 10295 10296 10297 10298 10299 10299 10300 10300 10300 10300 10302 10302 10304 10304 10304 10305 10305 10305
10207 10207 10207 10208 10209 10210 10210 10210 10210 10211 10213 10214 10213 10213 10213 10213 10212 10210 10209 10209 10210 10211 10214 10217 10219 10220 10223 10226 10230 10234 10236 10239 10241 10244 10245 10247 10249 10250 10252 10253 10255 10257 10259 10260 10262 10264 10265 10267 10268 10269 10270 10270 10271 10272 10273 10274 10275 10275 10277 10278 10279 10279 10280 10282 10282 10284 10285 10285 10287 10288 10289 10289 10290 10290 10291 10291 10292 10292 10293 10294 10295 10295 10296 10296 10297 10297
10195 10195 10195 10195 10196 10197 10198 10197 10197 10199 10200 10201 10201 10200 10201 10201 10200 10199 10198 10198 10199 10200 10203 10206 10209 10211 10213 10216 10219 10223 10227 10229 10232 10234 10235 10237 10238 10240 10241 10243 10245 10247 10249 10251 10253 10254 10256 10257 10259 10259 10260 10261 10262 10263 10264 10264 10265 10267 10268 10269 10270 10271 10272 10273 10274 10275 10276 10277 10278 10279 10280 10281 10282 10282 10282 10283 10284 10284 10285 10285 10287 10287 10287 10288 10289 10289
10183 10184 10184 10184 10184 10185 10185 10185 10186 10187 10189 10189 10189 10189 10189 10189 10189 10189 10189 10189 10189 10190 10193 10195 10198 10201 10204 10207 10209 10213 10217 10220 10222 10223 10225 10226 10228 10229 10231 10233 10235 10237 10240 10242 10244 10245 10246 10247 10249 10249 10250 10252 10252 10254 10254 10255 10256 10257 10259 10260 10261 10262 10263 10264 10265 10266 10268 10269 10270 10271 10272 10272 10274 10274 10274 10275 10275 10276 10276 10277 10278 10279 10279 10280 10280 10280
10172 10172 10173 10173 10174 10174 10174 10174 10175 10176 10177 10177 10177 10177 10176 10177 10178 10179 10180 10179 10180 10181 10183 10185 10188 10191 10194 10197 10200 10203 10207 10209 10212 10213 10215 10216 10217 10219 10222 10224 10226 10228 10230 10232 10234 10235 10237 10238 10239 10240 10241 10242 10243 10244 10245 10246 10247 10249 10250 10251 10252 10253 10254 10255 10257 10258 10259 10260 10261 10262 10264 10264 10265 10265 10266 10267 10267 10267 10268 10269 10269 10270 10270 10271 10272 10272
10162 10162 10163 10163 10163 10164 10164 10164 10164 10164 10165 10165 10166 10166 10166 10167 10169 10170 10170 10170 10170 10172 10174 10177 10179 10182 10185 10188 10191 10194 10196 10199 10201 10204 10205 10206 10207 10209 10212 10214 10217 10219 10221 10224 10225 10226 10227 10228 10229 10230 10231 10233 10234 10235 10235 10237 10238 10239 10240 10242 10243 10244 10245 10247 10249 10250 10251 10252 10253 10254 10255 10255 10256 10257 10258 10258 10259 10259 10260 10260 10261 10262 10262 10263 10263 10264
10152 10153 10153 10153 10153 10153 10153 10154 10154 10154 10154 10155 10155 10156 10157 10158 10159 10160 10160 10160 10161 10163 10166 10169 10171 10173 10175 10178 10180 10184 10186 10189 10191 10194 10195 10196 10197 10200 10203 10205 10207 10209 10212 10214 10215 10217 10218 10219 10220 10220 10222 10223 10224 10225 10226 10227 10229 10230 10232 10233 10234 10236 10237 10239 10240 10241 10242 10244 10245 10245 10247 10247 10248 10249 10249 10250 10250 10250 10251 10252 10253 10254 10254 10254 10255 10255
10144 10144 10144 10144 10144 10144 10144 10144 10144 10144 10144 10145 10145 10147 10147 10149 10149 10150 10151 10152 10153 10155 10158 10160 10162 10164 10166 10168 10170 10174 10177 10179 10182 10184 10185 10187 10189 10191 10194 10196 10197 10200 10202 10204 10205 10207 10209 10210 10210 10211 10212 10214 10214 10215 10217 10219 10220 10221 10223 10224 10226 10227 10229 10230 10232 10233 10234 10235 10237 10237 10239 10239 10240 10240 10241 10241 10242 10242 10243 10244 10244 10245 10245 10246 10247 10247
10135 10135 10135 10135 10134 10134 10134 10135 10135 10135 10135 10135 10136 10137 10139 10139 10140 10142 10143 10144 10145 10147 10150 10152 10154 10156 10157 10159 10161 10164 10167 10170 10172 10174 10177 10178 10179 10181 10185 10187 10188 10190 10192 10194 10196 10197 10199 10200 10201 10202 10203 10204 10205 10206 10208 10209 10211 10213 10214 10216 10217 10219 10220 10222 10224 10225 10226 10227 10229 10229 10230 10231 10232 10232 10232 10233 10234 10234 10235 10235 10236 10237 10237 10238 10239 10239
10127 10127 10126 10126 10126 10125 10126 10126 10127 10127 10127 10127 10127 10129 10130 10131 10132 10134 10135 10136 10137 10139 10141 10144 10146 10148 10149 10150 10152 10155 10159 10162 10164 10165 10168 10169 10169 10171 10175 10177 10179 10180 10182 10185 10187 10188 10190 10192 10192 10194 10194 10195 10197 10198 10199 10200 10203 10204 10206 10207 10209 10211 10212 10214 10215 10217 10218 10219 10220 10221 10222 10222 10223 10224 10224 10224 10225 10225 10227 10227 10228 10229 10229 10230 10230 10230
10119 10119 10119 10118 10117 10117 10118 10118 10118 10118 10118 10119 10119 10120 10122 10123 10124 10125 10126 10128 10129 10131 10134 10136 10138 10139 10140 10142 10143 10146 10151 10154 10155 10156 10158 10159 10159 10162 10165 10168 10170 10171 10173 10175 10177 10179 10181 10183 10184 10185 10186 10187 10188 10189 10191 10192 10194 10196 10198 10199 10201 10203 10204 10206 10207 10209 10210 10211 10212 10212 10213 10214 10214 10215 10215 10216 10217 10217 10218 10219 10220 10221 10222 10222 10222 10222
10112 10112 10111 10110 10110 10110 10110 10110 10110 10110 10110 10111 10112 10114 10114 10115 10116 10117 10118 10120 10122 10124 10126 10129 10130 10131 10132 10134 10136 10139 10143 10145 10146 10147 10148 10149 10150 10153 10157 10159 10161 10162 10164 10165 10167 10169 10172 10174 10175 10177 10178 10179 10180 10181 10183 10184 10186 10188 10190 10191 10193 10195 10196 10198 10199 10200 10202 10203 10204 10204 10205 10205 10206 10206 10207 10207 10208 10209 10210 10211 10212 10213 10214 10214 10214 10215
10105 10104 10104 10104 10104 10103 10102 10102 10102 10102 10103 10104 10105 10106 10106 10107 10109 10109 10110 10112 10114 10117 10119 10121 10122 10123 10125 10127 10129 10130 10134 10136 10137 10137 10139 10140 10142 10145 10148 10150 10152 10154 10155 10156 10158 10160 10163 10165 10167 10168 10169 10170 10172 10173 10175 10177 10178 10180 10182 10184 10185 10187 10188 10190 10191 10192 10194 10194 10195 10196 10196 10197 10197 10198 10199 10199 10200 10201 10202 10203 10204 10205 10205 10206 10206 10207
10097 10096 10096 10097 10097 10096 10095 10095 10095 10095 10096 10097 10098 10099 10099 10100 10101 10102 10104 10105 10107 10109 10112 10113 10114 10115 10118 10119 10120 10122 10125 10127 10128 10129 10130 10133 10134 10136 10139 10142 10144 10145 10147 10147 10149 10152 10154 10156 10158 10159 10161 10162 10164 10165 10167 10169 10170 10172 10174 10175 10177 10179 10180 10182 10183 10184 10185 10185 10187 10187 10188 10189 10189 10189 10190 10191 10192 10193 10194 10195 10196 10197 10197 10198 10198 10199
10090 10089 10089 10089 10089 10089 10089 10089 10089 10089 10089 10090 10090 10091 10092 10093 10094 10095 10097 10099 10100 10102 10104 10105 10107 10109 10110 10112 10112 10114 10117 10118 10119 10121 10123 10125 10125 10127 10131 10134 10136 10137 10138 10139 10140 10143 10145 10147 10149 10151 10152 10154 10155 10157 10159 10161 10163 10164 10166 10167 10169 10170 10172 10173 10174 10175 10177 10177 10178 10179 10179 10180 10180 10181 10182 10182 10184 10185 10186 10187 10188 10189 10189 10190 10190 10191
10084 10082 10081 10082 10082 10082 10083 10083 10083 10083 10083 10084 10084 10085 10085 10086 10087 10089 10091 10092 10094 10095 10097 10099 10100 10102 10103 10104 10105 10107 10108 10110 10112 10114 10115 10117 10118 10120 10124 10126 10128 10129 10129 10130 10132 10135 10137 10139 10141 10143 10144 10146 10147 10149 10151 10152 10154 10156 10158 10159 10161 10162 10164 10165 10166 10167 10168 10169 10170 10170 10171 10172 10172 10173 10174 10174 10175 10177 10177 10179 10179 10180 10181 10182 10183 10183
10078 10077 10075 10075 10075 10075 10076 10077 10077 10077 10077 10078 10078 10079 10079 10080 10082 10083 10085 10086 10087 10089 10090 10092 10094 10095 10095 10097 10099 10099 10100 10103 10105 10107 10108 10109 10110 10112 10115 10118 10120 10120 10120 10122 10125 10127 10129 10131 10133 10135 10137 10138 10139 10141 10143 10144 10146 10148 10150 10151 10153 10154 10155 10157 10158 10159 10160 10160 10161 10162 10162 10163 10164 10165 10165 10167 10167 10169 10169 10170 10171 10172 10174 10174 10175 10175
10072 10071 10070 10069 10069 10069 10070 10070 10070 10071 10072 10072 10072 10073 10074 10074 10076 10077 10079 10080 10081 10083 10084 10086 10087 10088 10089 10091 10092 10093 10094 10096 10098 10100 10101 10102 10104 10105 10107 10110 10112 10113 10113 10115 10117 10120 10122 10124 10125 10127 10129 10130 10132 10133 10135 10137 10138 10140 10142 10143 10145 10146 10147 10149 10150 10150 10152 10152 10153 10154 10154 10155 10155 10157 10157 10159 10159 10160 10161 10162 10164 10165 10165 10167 10167 10167
10067 10067 10065 10064 10064 10063 10064 10064 10064 10065 10066 10067 10067 10067 10068 10069 10070 10072 10072 10073 10075 10077 10079 10080 10081 10082 10084 10085 10085 10086 10088 10090 10092 10093 10094 10095 10097 10098 10099 10102 10104 10105 10106 10107 10110 10112 10115 10116 10118 10119 10121 10122 10124 10125 10127 10129 10130 10132 10134 10135 10137 10138 10139 10140 10141 10142 10143 10144 10145 10145 10146 10147 10147 10149 10150 10150 10152 10152 10154 10155 10155 10157 10158 10159 10160 10160
10062 10062 10061 10060 10059 10059 10058 10058 10059 10059 10060 10061 10062 10062 10063 10064 10065 10065 10066 10067 10070 10072 10074 10074 10075 10076 10077 10079 10079 10080 10082 10084 10085 10086 10088 10089 10090 10090 10092 10094 10096 10098 10099 10100 10103 10105 10108 10109 10110 10112 10113 10114 10116 10118 10119 10121 10123 10124 10126 10127 10129 10130 10131 10132 10133 10134 10135 10135 10136 10137 10138 10139 10140 10140 10142 10143 10144 10145 10146 10147 10148 10149 10150 10151 10152 10152
10057 10056 10055 10055 10055 10054 10054 10054 10053 10054 10054 10055 10056 10057 10058 10059 10059 10060 10060 10062 10065 10066 10067 10068 10069 10070 10071 10072 10074 10075 10077 10077 10078 10079 10081 10083 10083 10083 10085 10087 10089 10090 10092 10094 10096 10099 10101 10102 10103 10104 10105 10107 10108 10110 10112 10114 10115 10117 10118 10119 10120 10122 10123 10124 10124 10125 10126 10127 10128 10129 10130 10131 10132 10133 10134 10135 10136 10137 10138 10139 10140 10141 10142 10144 10144 10145
10052 10052 10051 10050 10050 10049 10049 10049 10049 10049 10049 10049 10050 10052 10053 10054 10054 10054 10055 10057 10059 10060 10061 10062 10063 10064 10065 10067 10069 10069 10070 10070 10071 10073 10075 10076 10076 10077 10079 10080 10082 10084 10086 10088 10090 10092 10093 10094 10095 10097 10097 10099 10100 10102 10104 10105 10107 10109 10110 10111 10112 10114 10114 10115 10115 10117 10118 10119 10120 10121 10122 10123 10124 10125 10127 10128 10129 10130 10130 10132 10132 10134 10135 10136 10137 10137
10047 10047 10046 10046 10045 10045 10044 10044 10044 10044 10044 10044 10045 10046 10047 10048 10049 10049 10050 10052 10054 10055 10055 10057 10057 10059 10060 10061 10062 10063 10063 10064 10065 10067 10069 10069 10070 10070 10073 10074 10075 10077 10080 10082 10083 10084 10085 10086 10088 10089 10090 10092 10093 10095 10096 10098 10099 10101 10102 10103 10104 10105 10105 10107 10107 10109 10110 10111 10112 10114 10115 10116 10117 10119 10119 10120 10121 10122 10123 10124 10125 10126 10127 10128 10129 10129
10042 10042 10042 10041 10041 10040 10040 10040 10039 10039 10039 10039 10040 10040 10042 10043 10044 10044 10045 10046 10047 10049 10050 10051 10052 10053 10054 10055 10056 10056 10056 10057 10059 10060 10062 10063 10064 10065 10067 10068 10069 10070 10073 10074 10076 10077 10077 10079 10080 10082 10084 10084 10085 10087 10089 10090 10092 10093 10094 10095 10095 10096 10097 10099 10100 10101 10102 10104 10105 10107 10108 10109 10110 10111 10112 10113 10114 10114 10115 10116 10117 10118 10120 10120 10121 10121
10038 10038 10037 10037 10037 10037 10036 10036 10035 10035 10035 10035 10035 10035 10036 10037 10039 10039 10039 10040 10041 10042 10044 10045 10046 10047 10048 10049 10050 10050 10050 10051 10052 10054 10056 10057 10058 10059 10061 10062 10063 10064 10065 10067 10069 10070 10070 10071 10072 10074 10076 10077 10079 10080 10081 10082 10084 10085 10086 10087 10088 10089 10089 10091 10092 10094 10095 10097 10099 10100 10101 10102 10103 10104 10105 10105 10106 10107 10107 10108 10109 10110 10112 10113 10114 10114
10034 10033 10033 10033 10033 10032 10032 10032 10032 10032 10031 10031 10031 10031 10031 10032 10033 10034 10034 10034 10034 10036 10037 10039 10040 10041 10042 10044 10044 10044 10045 10045 10047 10048 10050 10051 10052 10053 10055 10056 10057 10057 10059 10060 10061 10062 10064 10064 10065 10066 10068 10069 10072 10073 10074 10075 10076 10077 10079 10080 10080 10081 10082 10084 10085 10087 10089 10090 10092 10093 10094 10095 10095 10096 10097 10098 10099 10099 10100 10100 10102 10103 10104 10105 10106 10106
10029 10029 10029 10029 10029 10029 10029 10029 10028 10028 10027 10027 10027 10027 10027 10027 10027 10027 10028 10028 10029 10029 10030 10032 10034 10035 10037 10038 10039 10039 10039 10040 10041 10043 10044 10045 10046 10047 10049 10049 10050 10051 10052 10053 10054 10055 10056 10057 10058 10059 10060 10062 10064 10066 10067 10068 10069 10070 10071 10072 10074 10074 10075 10077 10079 10080 10082 10084 10085 10085 10087 10087 10088 10089 10089 10090 10091 10092 10092 10094 10095 10095 10097 10098 10099 10099
10024 10024 10025 10025 10025 10025 10025 10025 10024 10024 10024 10024 10023 10022 10022 10022 10022 10022 10022 10023 10023 10024 10024 10026 10028 10030 10032 10033 10034 10034 10034 10035 10037 10038 10039 10039 10040 10041 10042 10042 10044 10045 10045 10046 10047 10048 10049 10050 10051 10053 10054 10055 10057 10058 10059 10060 10062 10063 10064 10065 10067 10067 10069 10070 10072 10074 10075 10077 10077 10079 10079 10080 10080 10081 10082 10083 10084 10084 10085 10087 10087 10089 10089 10090 10090 10091
10019 10019 10020 10020 10020 10020 10020 10020 10020 10020 10020 10020 10019 10019 10018 10018 10017 10017 10018 10018 10019 10019 10019 10020 10021 10023 10025 10027 10028 10029 10029 10030 10031 10032 10033 10034 10034 10035 10035 10036 10037 10039 10039 10040 10040 10042 10043 10044 10045 10046 10048 10049 10049 10050 10052 10053 10055 10056 10057 10058 10060 10061 10062 10064 10065 10067 10069 10069 10070 10071 10072 10073 10074 10074 10075 10076 10077 10077 10079 10080 10080 10081 10082 10083 10084 10084
10015 10015 10015 10016 10016 10017 10017 10017 10017 10017 10017 10016 10015 10015 10014 10014 10014 10014 10014 10014 10014 10014 10014 10015 10015 10017 10019 10020 10022 10023 10024 10025 10025 10026 10027 10028 10029 10029 10029 10030 10031 10032 10033 10034 10034 10035 10037 10038 10039 10040 10041 10042 10042 10043 10044 10046 10047 10049 10050 10052 10053 10054 10055 10057 10059 10060 10061 10062 10063 10064 10065 10065 10066 10067 10068 10069 10070 10071 10072 10073 10074 10074 10075 10075 10076 10077
10010 10010 10011 10012 10012 10012 10012 10012 10012 10012 10012 10012 10012 10011 10010 10010 10010 10010 10010 10010 10010 10010 10010 10010 10010 10010 10012 10014 10015 10017 10018 10019 10020 10020 10022 10022 10023 10024 10024 10025 10025 10026 10027 10028 10029 10030 10031 10032 10033 10034 10034 10035 10036 10037 10038 10039 10040 10042 10043 10045 10047 10048 10049 10050 10052 10053 10054 10055 10056 10057 10057 10059 10059 10060 10061 10062 10064 10064 10065 10066 10067 10068 10069 10069 10070 10070
10005 10005 10006 10007 10007 10008 10007 10007 10007 10008 10008 10008 10007 10007 10007 10007 10006 10006 10006 10006 10006 10006 10006 10005 10005 10005 10006 10007 10008 10010 10011 10012 10014 10015 10015 10017 10017 10018 10019 10019 10020 10020 10022 10022 10023 10024 10025 10026 10027 10028 10029 10029 10030 10030 10032 10032 10034 10035 10037 10038 10039 10040 10042 10043 10045 10045 10047 10048 10049 10049 10050 10051 10052 10054 10055 10056 10057 10058 10059 10060 10060 10061 10062 10062 10063 10063
10000 10000 10001 10002 10002 10003 10003 10003 10003 10003 10004 10004 10004 10003 10003 10003 10002 10002 10002 10002 10002 10002 10002 10002 10002 10001 10001 10001 10002 10002 10004 10005 10007 10009 10010 10010 10012 10012 10014 10014 10014 10015 10016 10017 10017 10019 10020 10020 10021 10022 10022 10023 10024 10024 10025 10026 10027 10029 10030 10031 10032 10033 10035 10036 10037 10039 10040 10040 10042 10042 10044 10045 10046 10047 10049 10050 10051 10052 10053 10054 10054 10054 10055 10055 10056 10057
9997 9996 9996 9997 9997 9998 9999 9999 9999 9999 9999 9999 9999 9999 9999 9999 9999 9999 9999 9999 9998 9998 9998 9998 9998 9997 9997 9997 9996 9996 9997 9999 10000 10002 10004 10005 10005 10007 10007 10008 10009 10010 10010 10011 10012 10013 10014 10014 10015 10015 10016 10017 10018 10019 10019 10020 10021 10022 10024 10024 10025 10026 10028 10029 10030 10031 10032 10034 10035 10036 10037 10039 10040 10041 10042 10044 10045 10045 10047 10047 10047 10048 10048 10049 10049 10050
9994 9992 9992 9992 9992 9993 9993 9994 9994 9994 9994 9995 9995 9995 9995 9995 9995 9995 9994 9994 9994 9994 9994 9994 9994 9994 9993 9992 9992 9991 9991 9992 9994 9995 9997 9998 10000 10000 10002 10002 10003 10004 10005 10005 10006 10007 10007 10009 10009 10010 10010 10011 10012 10013 10013 10014 10015 10015 10017 10017 10019 10020 10020 10022 10023 10025 10026 10027 10028 10030 10031 10032 10034 10035 10037 10038 10039 10040 10040 10040 10041 10041 10042 10042 10043 10044
9990 9989 9988 9988 9987 9988 9988 9989 9989 9989 9989 9990 9990 9990 9990 9991 9991 9990 9990 9990 9990 9990 9990 9990 9990 9990 9989 9988 9987 9987 9987 9987 9987 9989 9990 9992 9994 9995 9995 9997 9997 9999 9999 10000 10000 10001 10002 10003 10004 10004 10004 10005 10006 10007 10007 10007 10008 10009 10010 10011 10012 10014 10014 10015 10017 10019 10019 10020 10022 10023 10024 10026 10028 10029 10030 10032 10032 10033 10034 10034 10034 10035 10035 10035 10036 10037
9987 9985 9985 9984 9984 9984 9983 9984 9984 9984 9984 9984 9985 9985 9986 9987 9987 9987 9986 9985 9985 9985 9985 9986 9986 9986 9985 9984 9984 9983 9982 9982 9983 9984 9984 9986 9987 9989 9990 9990 9992 9993 9994 9994 9995 9995 9997 9997 9997 9998 9999 10000 10000 10000 10000 10000 10001 10002 10003 10005 10006 10007 10008 10009 10010 10012 10013 10014 10015 10017 10019 10020 10022 10024 10025 10025 10026 10027 10027 10027 10028 10029 10029 10029 10030 10030
9984 9982 9982 9980 9980 9979 9979 9979 9979 9979 9979 9979 9980 9980 9981 9982 9982 9983 9982 9982 9982 9981 9981 9982 9982 9981 9980 9980 9980 9979 9979 9979 9979 9979 9979 9980 9982 9983 9984 9985 9986 9987 9988 9989 9990 9990 9991 9991 9992 9993 9994 9994 9995 9994 9994 9994 9994 9995 9997 9998 10000 10002 10002 10004 10004 10005 10007 10008 10010 10011 10013 10015 10017 10018 10019 10019 10020 10020 10021 10022 10022 10022 10022 10023 10024 10024
9980 9979 9979 9977 9976 9975 9975 9974 9974 9974 9974 9974 9974 9975 9976 9977 9977 9978 9978 9978 9978 9977 9977 9977 9977 9976 9975 9975 9975 9975 9975 9974 9974 9975 9975 9975 9977 9977 9979 9979 9980 9981 9982 9983 9984 9985 9985 9986 9987 9987 9988 9989 9989 9988 9988 9988 9989 9989 9990 9992 9994 9996 9997 9997 9999 9999 10000 10002 10004 10005 10007 10009 10010 10012 10012 10014 10014 10014 10015 10015 10015 10016 10017 10017 10018 10019
9977 9976 9975 9974 9973 9972 9971 9970 9970 9969 9969 9969 9969 9970 9970 9971 9972 9972 9973 9974 9974 9973 9973 9972 9972 9972 9971 9971 9971 9970 9970 9970 9970 9970 9970 9971 9972 9972 9974 9974 9975 9976 9977 9978 9979 9979 9980 9980 9981 9982 9982 9982 9982 9982 9982 9982 9983 9984 9985 9987 9989 9990 9991 9992 9992 9994 9995 9996 9998 9999 10001 10003 10005 10005 10007 10008 10009 10009 10009 10009 10010 10010 10010 10011 10012 10012
9974 9972 9972 9971 9970 9969 9968 9967 9966 9965 9965 9965 9964 9964 9965 9965 9966 9966 9967 9967 9968 9968 9968 9967 9967 9967 9966 9966 9966 9966 9966 9966 9966 9966 9966 9967 9967 9968 9969 9969 9970 9971 9972 9972 9974 9974 9975 9975 9975 9976 9976 9977 9976 9976 9976 9977 9978 9979 9980 9982 9983 9984 9985 9985 9987 9988 9989 9990 9992 9994 9995 9997 9999 10000 10001 10002 10003 10003 10004 10004 10004 10004 10005 10005 10005 10006
9969 9969 9968 9967 9967 9966 9965 9964 9963 9962 9961 9960 9960 9960 9960 9960 9960 9961 9961 9962 9962 9962 9962 9962 9962 9962 9961 9961 9961 9962 9962 9962 9962 9962 9962 9962 9963 9964 9964 9965 9965 9966 9967 9967 9968 9969 9969 9970 9970 9970 9970 9970 9970 9970 9971 9972 9973 9974 9975 9977 9977 9979 9979 9980 9980 9982 9983 9985 9986 9988 9990 9991 9993 9995 9996 9997 9997 9998 9998 9998 9998 9998 9998 9999 9999 10000
9965 9965 9964 9964 9963 9962 9962 9960 9960 9959 9958 9957 9957 9956 9956 9956 9956 9956 9957 9957 9957 9957 9957 9957 9957 9956 9956 9956 9956 9957 9957 9957 9957 9957 9957 9958 9959 9959 9959 9960 9960 9961 9962 9962 9963 9964 9964 9965 9965 9965 9965 9965 9965 9965 9966 9967 9969 9970 9970 9971 9972 9973 9974 9974 9975 9976 9977 9979 9980 9982 9984 9985 9987 9989 9990 9992 9992 9993 9993 9992 9992 9992 9992 9992 9993 9994